QPF
0.01 0.02 0.05 0.13 0.14 0.15 0.14 0.11 0.13 0.13 0.15 0.15 0.16 0.13 0.11 0.09 0.08 0.09 0.09 0.09 0.09 0.08 0.11 0.11 0.11 0.12 0.12 0.12 0.11 0.09 0.08 0.11 0.11 0.10 0.09 0.07 0.06 0.05 0.03 0.03 0.04 0.04 0.05
0.02 0.03 0.07 0.15 0.18 0.15 0.12 0.14 0.14 0.13 0.13 0.13 0.13 0.14 0.13 0.11 0.10 0.10 0.08 0.09 0.09 0.09 0.15 0.18 0.12 0.14 0.13 0.15 0.14 0.12 0.10 0.09 0.10 0.09 0.06 0.06 0.06 0.07 0.03 0.02 0.03 0.05 0.05
0.03 0.07 0.13 0.22 0.18 0.12 0.11 0.12 0.12 0.12 0.11 0.11 0.09 0.11 0.14 0.15 0.14 0.13 0.10 0.09 0.08 0.10 0.20 0.25 0.24 0.22 0.17 0.16 0.17 0.13 0.12 0.09 0.09 0.07 0.06 0.07 0.07 0.07 0.06 0.03 0.04 0.05 0.07
0.02 0.05 0.13 0.19 0.11 0.08 0.10 0.09 0.08 0.09 0.09 0.09 0.06 0.08 0.11 0.14 0.15 0.13 0.08 0.08 0.06 0.10 0.18 0.27 0.33 0.24 0.23 0.23 0.17 0.14 0.13 0.09 0.08 0.06 0.05 0.05 0.05 0.05 0.06 0.06 0.07 0.06 0.08
0.01 0.03 0.06 0.09 0.09 0.07 0.07 0.07 0.09 0.08 0.07 0.08 0.08 0.09 0.09 0.09 0.10 0.09 0.06 0.07 0.07 0.09 0.13 0.23 0.22 0.18 0.20 0.23 0.17 0.13 0.14 0.12 0.08 0.04 0.03 0.03 0.06 0.06 0.05 0.06 0.07 0.06 0.07
0.01 0.02 0.06 0.08 0.07 0.06 0.06 0.06 0.07 0.06 0.06 0.07 0.08 0.10 0.10 0.08 0.07 0.08 0.08 0.08 0.09 0.12 0.13 0.15 0.15 0.16 0.15 0.19 0.16 0.13 0.14 0.12 0.08 0.06 0.05 0.05 0.07 0.06 0.05 0.05 0.05 0.04 0.03
0.03 0.03 0.06 0.07 0.04 0.04 0.06 0.05 0.06 0.08 0.09 0.10 0.09 0.10 0.09 0.08 0.07 0.09 0.08 0.09 0.09 0.11 0.16 0.16 0.15 0.17 0.15 0.16 0.15 0.13 0.12 0.12 0.08 0.07 0.07 0.08 0.09 0.08 0.06 0.04 0.03 0.02 0.03
0.04 0.03 0.05 0.06 0.05 0.05 0.08 0.07 0.06 0.06 0.07 0.07 0.07 0.08 0.08 0.08 0.08 0.09 0.09 0.10 0.10 0.11 0.13 0.15 0.13 0.15 0.14 0.14 0.13 0.11 0.09 0.10 0.06 0.04 0.05 0.08 0.10 0.11 0.07 0.05 0.03 0.03 0.03
0.02 0.02 0.03 0.02 0.03 0.05 0.09 0.09 0.08 0.07 0.06 0.07 0.05 0.06 0.07 0.07 0.07 0.08 0.09 0.11 0.12 0.12 0.13 0.12 0.11 0.14 0.13 0.12 0.12 0.11 0.08 0.05 0.03 0.04 0.04 0.08 0.10 0.11 0.08 0.07 0.06 0.04 0.03
0.01 0.02 0.03 0.02 0.01 0.02 0.04 0.07 0.08 0.08 0.06 0.06 0.06 0.04 0.05 0.06 0.06 0.07 0.08 0.12 0.11 0.11 0.15 0.16 0.13 0.12 0.12 0.10 0.09 0.08 0.06 0.04 0.03 0.04 0.06 0.07 0.09 0.11 0.09 0.07 0.05 0.04 0.03
0.00 0.02 0.03 0.02 0.01 0.01 0.01 0.03 0.05 0.05 0.04 0.04 0.04 0.03 0.03 0.04 0.04 0.05 0.07 0.10 0.09 0.11 0.14 0.16 0.13 0.12 0.11 0.12 0.09 0.08 0.06 0.04 0.03 0.04 0.07 0.08 0.10 0.09 0.07 0.07 0.06 0.04 0.03
0.01 0.00 0.00 0.00 0.01 0.01 0.01 0.02 0.02 0.01 0.02 0.02 0.02 0.02 0.02 0.03 0.03 0.04 0.06 0.10 0.09 0.09 0.12 0.15 0.15 0.14 0.13 0.16 0.13 0.07 0.06 0.05 0.04 0.05 0.09 0.11 0.11 0.09 0.07 0.05 0.04 0.04 0.03
0.01 0.01 0.00 0.00 0.00 0.02 0.02 0.02 0.02 0.02 0.02 0.02 0.02 0.01 0.01 0.02 0.03 0.03 0.04 0.05 0.06 0.07 0.08 0.08 0.10 0.14 0.13 0.15 0.12 0.08 0.05 0.04 0.04 0.04 0.07 0.09 0.09 0.09 0.08 0.06 0.05 0.04 0.03
0.01 0.01 0.00 0.00 0.00 0.01 0.02 0.01 0.01 0.01 0.02 0.02 0.02 0.02 0.02 0.02 0.02 0.02 0.02 0.03 0.04 0.07 0.07 0.06 0.04 0.03 0.04 0.08 0.11 0.10 0.06 0.05 0.04 0.05 0.07 0.08 0.07 0.06 0.06 0.04 0.04 0.04 0.04
0.01 0.01 0.00 0.00 0.00 0.01 0.01 0.01 0.01 0.01 0.02 0.01 0.03 0.02 0.01 0.01 0.01 0.02 0.02 0.02 0.03 0.06 0.05 0.03 0.02 0.02 0.02 0.03 0.06 0.08 0.09 0.07 0.05 0.04 0.05 0.05 0.04 0.04 0.04 0.03 0.04 0.05 0.04
0.02 0.02 0.01 0.00 0.00 0.00 0.00 0.00 0.01 0.01 0.01 0.01 0.01 0.01 0.01 0.01 0.02 0.02 0.03 0.02 0.03 0.05 0.05 0.03 0.02 0.02 0.01 0.02 0.03 0.04 0.04 0.03 0.03 0.03 0.03 0.03 0.02 0.03 0.04 0.04 0.05 0.06 0.06
0.01 0.01 0.01 0.00 0.00 0.00 0.00 0.01 0.01 0.01 0.01 0.00 0.00 0.01 0.01 0.01 0.01 0.01 0.02 0.02 0.03 0.05 0.04 0.02 0.02 0.02 0.02 0.02 0.03 0.03 0.03 0.03 0.02 0.02 0.02 0.03 0.03 0.03 0.05 0.05 0.06 0.08 0.07
0.01 0.01 0.01 0.00 0.00 0.00 0.00 0.00 0.00 0.00 0.01 0.01 0.01 0.01 0.02 0.01 0.02 0.02 0.02 0.01 0.02 0.03 0.03 0.02 0.01 0.02 0.03 0.03 0.03 0.03 0.02 0.04 0.03 0.02 0.02 0.02 0.03 0.03 0.05 0.05 0.06 0.08 0.08
0.01 0.01 0.01 0.01 0.01 0.00 0.00 0.00 0.00 0.00 0.01 0.01 0.02 0.02 0.02 0.02 0.01 0.01 0.02 0.02 0.01 0.01 0.01 0.02 0.02 0.01 0.03 0.03 0.02 0.02 0.02 0.03 0.06 0.04 0.04 0.04 0.03 0.04 0.05 0.04 0.03 0.04 0.07
0.01 0.01 0.01 0.01 0.01 0.00 0.01 0.00 0.00 0.01 0.01 0.02 0.02 0.02 0.02 0.02 0.01 0.02 0.03 0.03 0.02 0.01 0.02 0.01 0.01 0.01 0.02 0.02 0.01 0.01 0.02 0.02 0.05 0.06 0.07 0.06 0.03 0.03 0.03 0.02 0.03 0.04 0.06
0.00 0.00 0.00 0.00 0.00 0.00 0.00 0.01 0.01 0.01 0.01 0.02 0.04 0.03 0.03 0.03 0.03 0.03 0.03 0.03 0.01 0.01 0.02 0.01 0.01 0.01 0.02 0.01 0.02 0.02 0.03 0.02 0.03 0.04 0.05 0.08 0.06 0.03 0.04 0.03 0.04 0.05 0.06
0.00 0.01 0.00 0.00 0.00 0.00 0.00 0.00 0.01 0.01 0.03 0.03 0.05 0.04 0.03 0.03 0.02 0.02 0.03 0.02 0.01 0.01 0.01 0.01 0.01 0.01 0.01 0.02 0.02 0.03 0.03 0.03 0.02 0.02 0.02 0.04 0.06 0.06 0.04 0.03 0.03 0.04 0.05
0.00 0.00 0.00 0.00 0.00 0.00 0.00 0.01 0.01 0.02 0.05 0.05 0.07 0.05 0.03 0.02 0.02 0.01 0.02 0.01 0.01 0.01 0.01 0.01 0.02 0.03 0.03 0.02 0.02 0.03 0.03 0.04 0.03 0.02 0.01 0.02 0.02 0.03 0.03 0.03 0.03 0.04 0.05
0.00 0.00 0.00 0.00 0.00 0.00 0.00 0.01 0.01 0.01 0.03 0.03 0.04 0.04 0.03 0.01 0.00 0.00 0.01 0.01 0.01 0.01 0.01 0.01 0.02 0.04 0.04 0.04 0.03 0.02 0.02 0.02 0.03 0.03 0.02 0.01 0.01 0.01 0.01 0.01 0.02 0.02 0.03
0.00 0.00 0.00 0.00 0.00 0.00 0.00 0.01 0.01 0.01 0.01 0.01 0.01 0.01 0.01 0.01 0.00 0.00 0.00 0.01 0.01 0.01 0.01 0.01 0.01 0.01 0.02 0.03 0.03 0.03 0.01 0.01 0.01 0.02 0.02 0.01 0.01 0.01 0.01 0.01 0.01 0.01 0.02
0.00 0.00 0.00 0.00 0.01 0.00 0.00 0.00 0.00 0.00 0.00 0.00 0.00 0.00 0.00 0.01 0.01 0.00 0.00 0.01 0.01 0.01 0.01 0.01 0.01 0.01 0.01 0.01 0.02 0.02 0.02 0.02 0.02 0.02 0.01 0.01 0.01 0.00 0.00 0.00 0.00 0.01 0.01
MSLP
1014.31 1013.96 1013.73 1013.62 1013.61 1013.61 1013.58 1013.44 1013.19 1012.83 1012.41 1012.02 1011.70 1011.52 1011.47 1011.55 1011.69 1011.84 1011.94 1011.96 1011.90 1011.80 1011.70 1011.66 1011.69 1011.82 1012.03 1012.28 1012.51 1012.70 1012.82 1012.88 1012.90 1012.91 1012.95 1013.03 1013.15 1013.30 1013.44 1013.56 1013.61 1013.60 1013.55
1014.22 1013.91 1013.73 1013.68 1013.71 1013.75 1013.73 1013.59 1013.30 1012.90 1012.44 1011.99 1011.63 1011.41 1011.34 1011.41 1011.54 1011.69 1011.79 1011.81 1011.76 1011.68 1011.60 1011.59 1011.65 1011.81 1012.03 1012.28 1012.50 1012.66 1012.76 1012.80 1012.81 1012.83 1012.89 1013.00 1013.16 1013.33 1013.50 1013.62 1013.66 1013.64 1013.58
1014.02 1013.76 1013.63 1013.63 1013.71 1013.79 1013.79 1013.66 1013.37 1012.96 1012.47 1011.99 1011.60 1011.35 1011.25 1011.27 1011.37 1011.48 1011.56 1011.57 1011.53 1011.47 1011.44 1011.47 1011.58 1011.78 1012.02 1012.27 1012.48 1012.61 1012.68 1012.71 1012.71 1012.74 1012.82 1012.97 1013.15 1013.35 1013.53 1013.64 1013.68 1013.66 1013.60
1013.71 1013.50 1013.43 1013.48 1013.60 1013.72 1013.75 1013.65 1013.39 1012.99 1012.51 1012.04 1011.63 1011.35 1011.20 1011.18 1011.21 1011.27 1011.31 1011.30 1011.27 1011.24 1011.26 1011.35 1011.52 1011.76 1012.03 1012.28 1012.47 1012.58 1012.63 1012.64 1012.64 1012.68 1012.79 1012.96 1013.17 1013.38 1013.56 1013.67 1013.71 1013.69 1013.65
1013.33 1013.17 1013.14 1013.24 1013.40 1013.56 1013.64 1013.58 1013.36 1013.00 1012.56 1012.10 1011.70 1011.40 1011.21 1011.12 1011.10 1011.09 1011.08 1011.06 1011.04 1011.05 1011.12 1011.28 1011.51 1011.79 1012.07 1012.32 1012.49 1012.58 1012.61 1012.60 1012.61 1012.68 1012.81 1013.01 1013.24 1013.46 1013.64 1013.74 1013.78 1013.78 1013.76
1012.95 1012.83 1012.84 1012.98 1013.18 1013.37 1013.49 1013.47 1013.30 1012.99 1012.60 1012.18 1011.79 1011.48 1011.26 1011.12 1011.04 1010.98 1010.93 1010.89 1010.89 1010.94 1011.07 1011.28 1011.56 1011.87 1012.16 1012.40 1012.55 1012.61 1012.62 1012.61 1012.63 1012.72 1012.88 1013.11 1013.36 1013.60 1013.77 1013.88 1013.92 1013.93 1013.94
1012.65 1012.56 1012.59 1012.75 1012.97 1013.18 1013.32 1013.34 1013.22 1012.96 1012.61 1012.23 1011.87 1011.57 1011.33 1011.16 1011.03 1010.94 1010.86 1010.83 1010.84 1010.93 1011.11 1011.37 1011.68 1012.01 1012.29 1012.50 1012.61 1012.65 1012.64 1012.63 1012.67 1012.80 1013.00 1013.26 1013.54 1013.79 1013.97 1014.09 1014.14 1014.16 1014.19
1012.49 1012.41 1012.45 1012.61 1012.83 1013.05 1013.19 1013.22 1013.12 1012.90 1012.60 1012.26 1011.93 1011.64 1011.40 1011.22 1011.07 1010.96 1010.88 1010.86 1010.90 1011.03 1011.25 1011.54 1011.87 1012.18 1012.44 1012.61 1012.68 1012.68 1012.66 1012.66 1012.72 1012.88 1013.13 1013.43 1013.75 1014.02 1014.22 1014.35 1014.41 1014.44 1014.49
1012.51 1012.42 1012.46 1012.60 1012.80 1012.99 1013.11 1013.13 1013.04 1012.83 1012.56 1012.25 1011.96 1011.69 1011.47 1011.29 1011.14 1011.04 1010.97 1010.97 1011.05 1011.21 1011.46 1011.76 1012.08 1012.37 1012.58 1012.71 1012.74 1012.71 1012.67 1012.68 1012.78 1012.98 1013.27 1013.61 1013.96 1014.26 1014.49 1014.63 1014.71 1014.76 1014.81
1012.67 1012.57 1012.59 1012.71 1012.86 1013.01 1013.09 1013.08 1012.97 1012.77 1012.51 1012.23 1011.97 1011.73 1011.53 1011.37 1011.25 1011.16 1011.12 1011.15 1011.26 1011.45 1011.71 1012.00 1012.31 1012.56 1012.73 1012.80 1012.79 1012.74 1012.70 1012.72 1012.84 1013.08 1013.40 1013.78 1014.16 1014.49 1014.74 1014.91 1015.01 1015.07 1015.13
1012.95 1012.83 1012.83 1012.90 1013.01 1013.10 1013.13 1013.07 1012.93 1012.73 1012.48 1012.23 1011.99 1011.79 1011.63 1011.50 1011.40 1011.34 1011.33 1011.38 1011.51 1011.71 1011.98 1012.26 1012.54 1012.75 1012.88 1012.92 1012.88 1012.82 1012.78 1012.82 1012.96 1013.22 1013.57 1013.97 1014.37 1014.72 1014.99 1015.18 1015.30 1015.37 1015.43
1013.26 1013.14 1013.10 1013.14 1013.20 1013.23 1013.20 1013.10 1012.94 1012.72 1012.49 1012.27 1012.07 1011.91 1011.78 1011.68 1011.62 1011.58 1011.59 1011.66 1011.80 1012.01 1012.26 1012.54 1012.79 1012.98 1013.08 1013.10 1013.06 1013.00 1012.97 1013.03 1013.18 1013.45 1013.80 1014.20 1014.59 1014.94 1015.22 1015.42 1015.56 1015.64 1015.70
1013.56 1013.43 1013.38 1013.38 1013.39 1013.37 1013.29 1013.16 1012.98 1012.78 1012.57 1012.38 1012.23 1012.11 1012.02 1011.96 1011.91 1011.89 1011.92 1011.99 1012.13 1012.33 1012.58 1012.83 1013.07 1013.25 1013.36 1013.39 1013.37 1013.34 1013.33 1013.40 1013.56 1013.82 1014.15 1014.52 1014.88 1015.20 1015.46 1015.66 1015.80 1015.90 1015.96
1013.82 1013.69 1013.63 1013.59 1013.56 1013.50 1013.39 1013.24 1013.07 1012.88 1012.71 1012.57 1012.47 1012.40 1012.35 1012.31 1012.29 1012.28 1012.30 1012.37 1012.50 1012.69 1012.92 1013.17 1013.41 1013.61 1013.74 1013.82 1013.84 1013.86 1013.90 1013.99 1014.15 1014.38 1014.66 1014.96 1015.26 1015.53 1015.75 1015.92 1016.05 1016.15 1016.21
1014.02 1013.90 1013.83 1013.77 1013.70 1013.61 1013.49 1013.34 1013.19 1013.04 1012.92 1012.84 1012.80 1012.77 1012.75 1012.74 1012.72 1012.71 1012.72 1012.78 1012.89 1013.07 1013.29 1013.55 1013.81 1014.05 1014.24 1014.38 1014.48 1014.57 1014.66 1014.77 1014.93 1015.12 1015.33 1015.55 1015.76 1015.94 1016.10 1016.22 1016.33 1016.41 1016.46
1014.19 1014.08 1013.99 1013.91 1013.82 1013.71 1013.58 1013.45 1013.33 1013.24 1013.18 1013.16 1013.16 1013.18 1013.19 1013.19 1013.18 1013.16 1013.16 1013.20 1013.30 1013.47 1013.70 1013.97 1014.27 1014.56 1014.83 1015.06 1015.25 1015.42 1015.57 1015.72 1015.87 1016.01 1016.15 1016.28 1016.38 1016.46 1016.52 1016.58 1016.64 1016.69 1016.72
1014.35 1014.24 1014.14 1014.04 1013.93 1013.81 1013.68 1013.57 1013.49 1013.45 1013.44 1013.48 1013.53 1013.58 1013.61 1013.62 1013.61 1013.59 1013.58 1013.61 1013.70 1013.87 1014.11 1014.41 1014.75 1015.11 1015.46 1015.78 1016.08 1016.33 1016.55 1016.74 1016.88 1016.99 1017.05 1017.08 1017.08 1017.05 1017.03 1017.01 1017.00 1017.00 1017.00
1014.51 1014.41 1014.30 1014.18 1014.05 1013.92 1013.80 1013.71 1013.66 1013.66 1013.70 1013.77 1013.86 1013.93 1013.98 1013.99 1013.98 1013.96 1013.95 1013.98 1014.08 1014.27 1014.53 1014.86 1015.24 1015.66 1016.08 1016.49 1016.87 1017.21 1017.49 1017.71 1017.87 1017.94 1017.95 1017.90 1017.80 1017.69 1017.57 1017.48 1017.41 1017.36 1017.31
1014.70 1014.60 1014.48 1014.34 1014.20 1014.06 1013.94 1013.87 1013.85 1013.87 1013.94 1014.03 1014.13 1014.21 1014.26 1014.28 1014.27 1014.26 1014.27 1014.33 1014.45 1014.65 1014.94 1015.30 1015.72 1016.18 1016.65 1017.12 1017.56 1017.96 1018.30 1018.55 1018.72 1018.78 1018.76 1018.65 1018.49 1018.31 1018.12 1017.97 1017.84 1017.74 1017.65
1014.88 1014.79 1014.67 1014.52 1014.37 1014.23 1014.12 1014.05 1014.04 1014.08 1014.16 1014.25 1014.35 1014.42 1014.47 1014.49 1014.50 1014.52 1014.56 1014.65 1014.81 1015.04 1015.35 1015.73 1016.17 1016.64 1017.13 1017.62 1018.09 1018.52 1018.89 1019.17 1019.35 1019.42 1019.38 1019.26 1019.07 1018.85 1018.63 1018.44 1018.28 1018.15 1018.01
1015.06 1014.98 1014.86 1014.71 1014.56 1014.42 1014.32 1014.27 1014.26 1014.30 1014.37 1014.45 1014.53 1014.60 1014.64 1014.67 1014.70 1014.75 1014.84 1014.98 1015.18 1015.45 1015.78 1016.16 1016.58 1017.04 1017.50 1017.98 1018.43 1018.86 1019.22 1019.51 1019.71 1019.79 1019.77 1019.66 1019.48 1019.26 1019.04 1018.85 1018.68 1018.54 1018.39
1015.18 1015.12 1015.02 1014.89 1014.75 1014.63 1014.54 1014.50 1014.50 1014.54 1014.60 1014.66 1014.72 1014.77 1014.80 1014.85 1014.91 1015.00 1015.14 1015.33 1015.58 1015.88 1016.21 1016.58 1016.96 1017.36 1017.76 1018.17 1018.58 1018.96 1019.30 1019.58 1019.79 1019.89 1019.90 1019.82 1019.68 1019.50 1019.32 1019.15 1019.01 1018.88 1018.74
1015.25 1015.22 1015.14 1015.04 1014.93 1014.83 1014.77 1014.75 1014.76 1014.80 1014.85 1014.89 1014.93 1014.96 1015.00 1015.05 1015.14 1015.28 1015.47 1015.72 1016.00 1016.32 1016.64 1016.97 1017.29 1017.61 1017.92 1018.23 1018.55 1018.86 1019.15 1019.40 1019.60 1019.73 1019.77 1019.75 1019.66 1019.54 1019.41 1019.30 1019.21 1019.12 1019.03
1015.26 1015.26 1015.21 1015.14 1015.07 1015.01 1014.98 1014.99 1015.02 1015.06 1015.11 1015.14 1015.16 1015.19 1015.22 1015.29 1015.40 1015.58 1015.81 1016.10 1016.41 1016.73 1017.03 1017.31 1017.55 1017.77 1017.97 1018.17 1018.37 1018.59 1018.82 1019.03 1019.22 1019.36 1019.44 1019.46 1019.44 1019.38 1019.33 1019.28 1019.26 1019.24 1019.21
1015.23 1015.25 1015.24 1015.20 1015.16 1015.14 1015.16 1015.19 1015.25 1015.30 1015.35 1015.37 1015.39 1015.40 1015.44 1015.52 1015.65 1015.85 1016.12 1016.42 1016.75 1017.06 1017.33 1017.55 1017.71 1017.83 1017.92 1018.00 1018.10 1018.22 1018.38 1018.54 1018.71 1018.85 1018.96 1019.02 1019.05 1019.06 1019.07 1019.10 1019.15 1019.21 1019.26
1015.18 1015.22 1015.22 1015.21 1015.20 1015.22 1015.26 1015.33 1015.40 1015.47 1015.52 1015.55 1015.56 1015.57 1015.60 1015.68 1015.83 1016.04 1016.32 1016.63 1016.95 1017.24 1017.47 1017.64 1017.73 1017.76 1017.75 1017.74 1017.75 1017.79 1017.88 1018.00 1018.14 1018.28 1018.40 1018.49 1018.56 1018.62 1018.68 1018.77 1018.89 1019.02 1019.16
Thickness
5763 5764 5760 5761 5761 5761 5761 5762 5762 5762 5762 5763 5763 5763 5764 5764 5764 5764 5764 5764 5765 5765 5766 5767 5767 5767 5767 5767 5767 5767 5767 5767 5767 5767 5767 5767 5767 5767 5767 5768 5769 5770 5768
5764 5763 5759 5759 5759 5759 5759 5759 5759 5759 5760 5760 5760 5760 5760 5761 5760 5761 5761 5761 5762 5763 5764 5765 5765 5765 5765 5764 5764 5764 5764 5764 5764 5765 5765 5765 5765 5765 5765 5765 5766 5767 5766
5762 5761 5758 5756 5756 5756 5756 5756 5756 5757 5757 5757 5757 5757 5757 5757 5757 5757 5758 5758 5759 5761 5762 5763 5762 5762 5761 5761 5760 5761 5760 5761 5761 5761 5763 5765 5763 5762 5762 5762 5762 5762 5762
5760 5758 5756 5753 5753 5753 5753 5753 5753 5753 5753 5753 5754 5754 5754 5754 5754 5754 5754 5755 5756 5758 5760 5760 5759 5758 5758 5757 5757 5757 5757 5757 5757 5759 5762 5763 5762 5759 5758 5758 5758 5759 5759
5758 5756 5753 5751 5751 5750 5750 5750 5750 5750 5750 5750 5750 5751 5751 5751 5751 5751 5751 5752 5753 5753 5755 5755 5754 5754 5753 5753 5753 5753 5753 5753 5753 5756 5758 5757 5757 5755 5754 5754 5755 5755 5756
5756 5755 5751 5749 5748 5748 5747 5747 5747 5747 5747 5747 5747 5747 5747 5747 5747 5747 5747 5748 5749 5749 5750 5750 5750 5750 5749 5748 5748 5748 5748 5749 5750 5753 5753 5753 5753 5751 5750 5750 5751 5751 5752
5754 5753 5750 5746 5746 5745 5745 5744 5744 5743 5743 5743 5743 5743 5744 5744 5744 5744 5744 5744 5745 5745 5745 5745 5745 5745 5745 5744 5744 5744 5744 5745 5748 5748 5749 5749 5748 5747 5747 5747 5747 5747 5748
5752 5751 5749 5744 5743 5743 5742 5742 5741 5740 5740 5740 5740 5740 5740 5740 5740 5740 5740 5740 5740 5741 5741 5741 5741 5741 5741 5740 5740 5740 5741 5742 5744 5746 5746 5745 5742 5742 5743 5743 5743 5743 5744
5750 5749 5749 5747 5744 5741 5740 5739 5738 5737 5737 5736 5736 5736 5736 5736 5736 5736 5736 5736 5736 5736 5736 5736 5736 5736 5736 5736 5736 5736 5737 5738 5741 5742 5743 5741 5738 5738 5738 5738 5738 5739 5739
5749 5748 5747 5745 5744 5743 5740 5736 5735 5734 5733 5733 5733 5733 5733 5733 5733 5733 5733 5732 5732 5732 5731 5731 5731 5731 5731 5731 5731 5732 5733 5735 5737 5738 5738 5736 5734 5734 5734 5734 5734 5734 5735
5746 5746 5746 5744 5742 5741 5739 5735 5734 5732 5731 5731 5731 5730 5731 5733 5732 5731 5729 5728 5728 5727 5727 5727 5726 5726 5727 5727 5727 5728 5730 5732 5732 5733 5731 5729 5729 5729 5729 5729 5729 5730 5730
5743 5745 5745 5743 5741 5739 5736 5735 5734 5733 5731 5730 5730 5729 5730 5729 5728 5727 5724 5724 5723 5723 5723 5722 5722 5723 5725 5725 5724 5725 5727 5728 5728 5728 5725 5724 5724 5724 5724 5724 5724 5725 5725
5744 5742 5742 5741 5739 5737 5734 5733 5731 5730 5728 5728 5728 5727 5726 5726 5726 5725 5725 5723 5721 5720 5720 5719 5721 5721 5722 5721 5722 5722 5723 5723 5723 5722 5719 5718 5719 5719 5720 5720 5720 5720 5721
5742 5740 5739 5739 5737 5735 5733 5730 5729 5728 5727 5726 5725 5725 5724 5723 5723 5722 5722 5720 5719 5717 5716 5717 5717 5717 5718 5718 5718 5718 5718 5717 5717 5716 5713 5713 5713 5714 5715 5715 5715 5716 5717
5739 5738 5737 5736 5735 5732 5729 5727 5727 5725 5725 5724 5721 5722 5721 5721 5721 5720 5719 5717 5716 5714 5713 5712 5713 5713 5713 5713 5713 5713 5713 5711 5711 5711 5709 5707 5708 5709 5710 5711 5711 5712 5712
5738 5737 5735 5734 5732 5730 5728 5727 5726 5723 5721 5721 5720 5719 5719 5718 5718 5717 5717 5714 5713 5711 5710 5709 5709 5708 5708 5707 5707 5706 5706 5706 5706 5706 5705 5704 5703 5704 5704 5705 5706 5707 5708
5737 5736 5733 5731 5730 5729 5727 5724 5723 5721 5721 5719 5718 5718 5717 5715 5715 5714 5714 5712 5710 5708 5707 5706 5706 5705 5703 5702 5701 5701 5701 5701 5701 5701 5701 5701 5701 5699 5699 5700 5701 5702 5703
5736 5734 5732 5730 5728 5726 5724 5722 5721 5720 5718 5717 5715 5715 5714 5713 5712 5711 5710 5709 5707 5706 5704 5703 5702 5701 5699 5698 5697 5697 5697 5696 5697 5697 5697 5697 5696 5696 5695 5695 5696 5697 5698
5735 5733 5731 5729 5726 5724 5722 5720 5718 5717 5714 5714 5712 5711 5711 5710 5709 5708 5706 5705 5704 5703 5702 5701 5699 5698 5695 5694 5694 5693 5693 5693 5692 5692 5693 5692 5692 5691 5692 5691 5691 5691 5692
5734 5733 5730 5727 5724 5722 5719 5719 5715 5714 5713 5711 5710 5708 5706 5706 5706 5705 5703 5703 5702 5701 5699 5698 5695 5694 5693 5692 5692 5690 5689 5689 5688 5688 5688 5687 5687 5688 5688 5688 5688 5687 5687
5731 5730 5729 5725 5722 5720 5717 5715 5712 5711 5710 5709 5707 5705 5704 5703 5702 5702 5701 5700 5699 5698 5696 5696 5693 5691 5690 5691 5689 5686 5686 5686 5685 5683 5683 5683 5683 5683 5683 5683 5683 5684 5684
5730 5729 5728 5725 5721 5719 5715 5714 5711 5709 5708 5707 5704 5703 5702 5701 5700 5699 5699 5698 5696 5694 5694 5693 5690 5689 5688 5688 5688 5685 5682 5682 5680 5680 5679 5678 5679 5679 5679 5679 5679 5679 5680
5729 5728 5726 5724 5720 5717 5714 5712 5709 5707 5705 5704 5702 5701 5700 5698 5697 5697 5696 5696 5694 5694 5692 5690 5689 5687 5686 5686 5687 5685 5680 5677 5677 5676 5676 5675 5675 5674 5674 5674 5675 5674 5674
5729 5727 5725 5722 5720 5716 5713 5710 5707 5703 5701 5701 5701 5700 5699 5697 5695 5694 5694 5693 5693 5692 5690 5689 5688 5686 5684 5683 5683 5682 5682 5680 5676 5672 5672 5672 5671 5670 5670 5670 5670 5670 5669
5728 5725 5723 5721 5717 5714 5711 5708 5705 5703 5702 5701 5700 5698 5697 5695 5694 5693 5692 5691 5690 5689 5688 5687 5685 5684 5683 5682 5681 5680 5678 5676 5677 5673 5668 5668 5668 5667 5667 5666 5665 5665 5664
5725 5722 5719 5716 5713 5711 5708 5707 5704 5701 5700 5698 5696 5696 5695 5694 5693 5692 5691 5690 5689 5688 5686 5685 5683 5682 5681 5680 5679 5679 5676 5674 5672 5670 5667 5666 5664 5664 5663 5661 5661 5660 5659